Regional Weather Roundup
Issued by NWS

Home | Current Version | Previous Version | Text Only | Print | Product List | Glossary Off
Versions: 1 2 3 4 5 6 7 8 9 10 11 12 13 14 15 16 17 18 19 20 21 22 23 24 25 26 27 28 29 30 31 32 33 34 35 36 37 38 39 40 41 42 43 44 45 46 47 48 49 50

000
ASUS43 KDTX 220410
RWRMI
MICHIGAN HOURLY REGIONAL WEATHER ROUNDUP
NATIONAL WEATHER SERVICE DETROIT/PONTIAC MI
1100 PM EST WED FEB 21 2018

NOTE: "FAIR" INDICATES FEW OR NO CLOUDS BELOW 12,000 FEET WITH NO
SIGNIFICANT WEATHER AND/OR OBSTRUCTION TO VISIBILITY.

MIZ047>049-052>055-059>063-066>070-074>076-081>083-220500-
SOUTHEAST LOWER MICHIGAN

CITY           SKY/WX    TMP DP  RH WIND       PRES   REMARKS
ADRIAN         CLOUDY    34  31  88 SE8       30.62S WCI  27
ALMA           FAIR      30  25  81 CALM      30.66S
ANN ARBOR      CLOUDY    33  30  88 E5        30.62S WCI  29
BAD AXE        FAIR      26  23  90 CALM      30.67S
CARO           FAIR      28  26  90 E5        30.65S WCI  23
DETROIT CITY   FAIR      30  24  78 NE7       30.65F WCI  23
DETROIT        CLOUDY    32  27  81 NE6       30.64R WCI  26
FLINT          FAIR      31  25  78 NE5       30.63F WCI  26
GROSSE ILE     FAIR      31  28  86 NE8       30.63F WCI  24
HILLSDALE      FAIR      32  28  86 NE5       30.58F WCI  27
HOWELL         CLOUDY    32  29  89 NE3       30.62S

CITY           SKY/WX    TMP DP  RH WIND       PRES   REMARKS
JACKSON        FAIR      33  28  81 NE5       30.61S WCI  29
LAMBERTVILLE   FAIR      32  29  88 CALM      30.62F
LANSING        FAIR      31  28  89 N3        30.64S
LAPEER         MOCLDY    30  27  88 E5        30.64F WCI  25
MASON          FAIR      33  27  77 N3        30.63R
MONROE         FAIR      32  28  86 CALM      30.63S
MT. CLEMENS    PTCLDY    29  29  99 N3        30.65R
PONTIAC        CLOUDY    30  27  88 E7        30.62R WCI  23
PORT HOPE        N/A     29  21  72 NE8       30.66R WCI  21
PORT HURON     MOCLDY    28  23  80 N7        30.67R WCI  21
TRI CITIES     FAIR      30  24  78 N7        30.66S WCI  23
MIDLAND        FAIR      30  22  74 NE3       30.65F
TROY           CLOUDY    32  27  83 NE7       30.67S WCI  25
SAGINAW HB     FAIR      32  27  80 NE5       30.65S WCI  27
$$
MIZ043>046-050>051-056>058-064>065-071>073-077>080-220500-
SOUTHWEST LOWER MICHIGAN

CITY           SKY/WX    TMP DP  RH WIND       PRES   REMARKS
BATTLE CREEK   FAIR      31  28  89 NE5       30.61F WCI  26
BENTON HARBOR  FAIR      30  24  78 VRB5      30.63F WCI  25
BIG RAPIDS     FAIR      25  17  70 CALM      30.64S
COLDWATER      FAIR      33  32  98 NE5       30.59F WCI  28
FREMONT        FAIR      25  15  65 CALM      30.65S
HOLLAND        FAIR      29  21  72 N3        30.64S
GRAND RAPIDS   CLOUDY    30  22  72 N7        30.63F WCI  23
IONIA          FAIR      30  26  83 N5        30.63R WCI  25
KALAMAZOO      FAIR      32  27  81 N6        30.62R WCI  26
LUDINGTON      FAIR      22  20  93 CALM      30.66F
MARSHALL       FAIR      32  30  93 CALM      30.61R
MOUNT PLEASANT FAIR      30  22  72 CALM      30.65R
MUSKEGON       MOCLDY    25  17  72 N6        30.66S WCI  18
SOUTH HAVEN    FAIR      29  25  85 N3        30.63F
$$
MIZ016>042-220500-
NORTHERN LOWER MICHIGAN

CITY           SKY/WX    TMP DP  RH WIND       PRES   REMARKS
ALPENA         FAIR      22  17  81 NW3       30.68S
BEAVER ISLAND  FAIR      16  14  93 CALM      30.68S
BELLAIRE       FAIR      19  19 100 CALM      30.69S
CADILLAC       FAIR      20  16  82 CALM      30.61S
CHARLEVOIX     FAIR      20  18  93 CALM      30.71S
FRANKFORT      FAIR      20  19  92 CALM      30.67S
GAYLORD        FAIR      19  17  92 CALM      30.62S
GRAYLING       FAIR      21  17  85 CALM      30.63S
HARBOR SPRINGS FAIR      17  15  93 CALM      30.68S
HOUGHTON LAKE  FAIR      23  17  78 NE3       30.64S
MANISTEE       FAIR      20  17  88 E3        30.67S
OSCODA         MOCLDY    23  20  87 CALM      30.67S
PELLSTON       FAIR      15  13  91 CALM      30.68S
ROGERS CITY    FAIR      21  16  81 W5        30.69S WCI  14
TRAVERSE CITY  FAIR      23  17  78 CALM      30.67S
$$
MIZ007>008-015-220500-
EASTERN UPPER MICHIGAN

CITY           SKY/WX    TMP DP  RH WIND       PRES   REMARKS
KINROSS        FAIR      13   9  84 CALM      30.67F
MACKINAC ISLAN FAIR      16  14  91 NW3       30.67S
NEWBERRY       FAIR      13  12  96 CALM      30.65S
S. S. MARIE    FAIR      15  10  80 CALM      30.67F
MUNISING         N/A      7   6  96 S5        30.65S WCI  -2
$$
MIZ004>006-011>014-085-220500-
CENTRAL UPPER MICHIGAN

CITY           SKY/WX    TMP DP  RH WIND       PRES   REMARKS
MANISTIQUE     FAIR      14  13  94 CALM      30.66S
ESCANABA       FAIR       8   7  95 CALM      30.66F
MENOMINEE      FAIR      18  11  74 NW3       30.68F
SAWYER-GWINN   FAIR       2  -1  85 CALM      30.61S
$$
MIZ001>003-009>011-084-220500-
WESTERN UPPER MICHIGAN

CITY           SKY/WX    TMP DP  RH WIND       PRES   REMARKS
IRON MOUNTAIN  FAIR       8   2  76 CALM      30.60S
HOUGHTON       FAIR      10   1  67 CALM      30.59R
COPPER HARBOR    N/A     19   7  59 W6        30.61S WCI  11
IRONWOOD       FAIR      11   5  77 SW6       30.60S WCI   1
$$

ABBREVIATIONS USED IN REMARKS
   TC - TEMPERATURE IN CELSIUS
  WCI - WIND CHILL INDEX
   HX - HEAT INDEX
  VSB - VISIBILITY





USA.gov is the U.S. government's official web portal to all federal, state and local government web resources and services.